| time (UTC) | temp C | wind direction | speed KPH | gust KPH | rain 1hr cm | rain 24hr cm | rain mn cm | humidity % | barometer mb |
| 20260502233555 | 7 | 0 | 1.6 | 9.7 | 0.00 | 0.00 | 0.00 | 54 | 1013.7 |
| 20260502233054 | 7 | 29 | 0.0 | 6.4 | 0.00 | 0.00 | 0.00 | 55 | 1013.8 |
| 20260502232557 | 7 | 17 | 0.0 | 6.4 | 0.00 | 0.00 | 0.00 | 54 | 1013.9 |
| 20260502232054 | 7 | 352 | 1.6 | 6.4 | 0.00 | 0.00 | 0.00 | 54 | 1013.9 |
| 20260502231557 | 7 | 360 | 1.6 | 6.4 | 0.00 | 0.00 | 0.00 | 54 | 1013.9 |
| 20260502231055 | 7 | 360 | 0.0 | 6.4 | 0.00 | 0.00 | 0.00 | 53 | 1013.9 |
| 20260502230555 | 7 | 317 | 1.6 | 8.0 | 0.00 | 0.00 | 0.00 | 52 | 1013.9 |
| 20260502230058 | 7 | 346 | 1.6 | 8.0 | 0.00 | 0.00 | 0.00 | 54 | 1014.0 |
| 20260502225554 | 7 | 280 | 1.6 | 9.7 | 0.00 | 0.00 | 0.00 | 53 | 1014.0 |
| 20260502225054 | 7 | 0 | 1.6 | 9.7 | 0.00 | 0.00 | 0.00 | 52 | 1014.0 |
| 20260502224604 | 7 | 329 | 1.6 | 8.0 | 0.00 | 0.00 | 0.00 | 52 | 1014.0 |
| 20260502224054 | 7 | 290 | 0.0 | 11.3 | 0.00 | 0.00 | 0.00 | 53 | 1014.1 |
| 20260502223554 | 7 | 333 | 3.2 | 11.3 | 0.00 | 0.00 | 0.00 | 51 | 1014.1 |
| 20260502223054 | 7 | 258 | 3.2 | 11.3 | 0.00 | 0.00 | 0.00 | 51 | 1014.1 |
| 20260502222553 | 7 | 282 | 1.6 | 6.4 | 0.00 | 0.00 | 0.00 | 52 | 1014.1 |
| 20260502222054 | 8 | 300 | 1.6 | 8.0 | 0.00 | 0.00 | 0.00 | 50 | 1014.1 |
| 20260502221553 | 8 | 283 | 1.6 | 8.0 | 0.00 | 0.00 | 0.00 | 50 | 1014.1 |
| 20260502221055 | 8 | 293 | 1.6 | 8.0 | 0.00 | 0.00 | 0.00 | 50 | 1014.1 |
| 20260502220555 | 8 | 0 | 0.0 | 8.0 | 0.00 | 0.00 | 0.00 | 52 | 1014.0 |
| 20260502220054 | 8 | 289 | 1.6 | 11.3 | 0.00 | 0.00 | 0.00 | 51 | 1014.1 |
| 20260502215555 | 8 | 306 | 1.6 | 11.3 | 0.00 | 0.00 | 0.00 | 53 | 1013.9 |
| 20260502215054 | 8 | 352 | 3.2 | 12.9 | 0.00 | 0.00 | 0.00 | 51 | 1013.9 |
| 20260502214555 | 8 | 348 | 1.6 | 12.9 | 0.00 | 0.00 | 0.00 | 52 | 1013.9 |
| 20260502214054 | 8 | 286 | 1.6 | 8.0 | 0.00 | 0.00 | 0.00 | 51 | 1013.9 |
| 20260502213554 | 8 | 290 | 1.6 | 8.0 | 0.00 | 0.00 | 0.00 | 51 | 1013.9 |
| 20260502213100 | 8 | 297 | 3.2 | 11.3 | 0.00 | 0.00 | 0.00 | 51 | 1013.9 |
| 20260502212554 | 8 | 340 | 3.2 | 12.9 | 0.00 | 0.00 | 0.00 | 50 | 1013.9 |
| 20260502212055 | 8 | 272 | 1.6 | 12.9 | 0.00 | 0.00 | 0.00 | 49 | 1013.9 |
| 20260502211603 | 8 | 242 | 3.2 | 12.9 | 0.00 | 0.00 | 0.00 | 50 | 1013.9 |
| 20260502211057 | 8 | 0 | 3.2 | 12.9 | 0.00 | 0.00 | 0.00 | 49 | 1013.9 |
| 20260502210554 | 8 | 259 | 1.6 | 14.5 | 0.00 | 0.00 | 0.00 | 49 | 1013.9 |
| 20260502210117 | 8 | 348 | 4.8 | 14.5 | 0.00 | 0.00 | 0.00 | 51 | 1014.0 |
| 20260502205555 | 8 | 302 | 1.6 | 9.7 | 0.00 | 0.00 | 0.00 | 50 | 1014.1 |
| 20260502205058 | 7 | 0 | 3.2 | 9.7 | 0.00 | 0.00 | 0.00 | 49 | 1014.1 |
| 20260502204558 | 7 | 286 | 3.2 | 11.3 | 0.00 | 0.00 | 0.00 | 48 | 1014.1 |
| 20260502204054 | 7 | 295 | 3.2 | 12.9 | 0.00 | 0.00 | 0.00 | 48 | 1014.2 |
| 20260502203555 | 8 | 338 | 3.2 | 12.9 | 0.00 | 0.00 | 0.00 | 48 | 1014.2 |
| 20260502203057 | 8 | 268 | 3.2 | 12.9 | 0.00 | 0.00 | 0.00 | 48 | 1014.2 |
| 20260502202554 | 8 | 298 | 4.8 | 12.9 | 0.00 | 0.00 | 0.00 | 52 | 1014.2 |
| 20260502202054 | 8 | 294 | 3.2 | 12.9 | 0.00 | 0.00 | 0.00 | 50 | 1014.3 |
| 20260502201556 | 8 | 290 | 1.6 | 11.3 | 0.00 | 0.00 | 0.00 | 51 | 1014.3 |
| 20260502201055 | 8 | 5 | 3.2 | 12.9 | 0.00 | 0.00 | 0.00 | 49 | 1014.3 |
| 20260502200555 | 8 | 294 | 3.2 | 12.9 | 0.00 | 0.00 | 0.00 | 50 | 1014.3 |
| 20260502200057 | 8 | 312 | 1.6 | 12.9 | 0.00 | 0.00 | 0.00 | 49 | 1014.3 |
| 20260502195555 | 8 | 323 | 3.2 | 12.9 | 0.00 | 0.00 | 0.00 | 51 | 1014.4 |
| 20260502195055 | 8 | 343 | 3.2 | 17.7 | 0.00 | 0.00 | 0.00 | 51 | 1014.5 |
| 20260502194555 | 8 | 278 | 3.2 | 17.7 | 0.00 | 0.00 | 0.00 | 50 | 1014.6 |
| 20260502194058 | 8 | 328 | 3.2 | 12.9 | 0.00 | 0.00 | 0.00 | 47 | 1014.7 |
| 20260502193554 | 8 | 342 | 4.8 | 9.7 | 0.00 | 0.00 | 0.00 | 48 | 1014.6 |
| 20260502193102 | 8 | 331 | 3.2 | 12.9 | 0.00 | 0.00 | 0.00 | 50 | 1014.6 |
| 20260502192555 | 8 | 5 | 3.2 | 12.9 | 0.00 | 0.00 | 0.00 | 51 | 1014.8 |
| 20260502192054 | 8 | 300 | 1.6 | 11.3 | 0.00 | 0.00 | 0.00 | 48 | 1014.7 |
| 20260502191601 | 8 | 17 | 4.8 | 12.9 | 0.00 | 0.00 | 0.00 | 51 | 1015.0 |
| 20260502191055 | 8 | 317 | 4.8 | 12.9 | 0.00 | 0.00 | 0.00 | 49 | 1014.9 |
| 20260502190555 | 8 | 333 | 1.6 | 12.9 | 0.00 | 0.00 | 0.00 | 51 | 1014.9 |
| 20260502190110 | 8 | 355 | 3.2 | 12.9 | 0.00 | 0.00 | 0.00 | 49 | 1015.0 |
| 20260502185554 | 8 | 352 | 4.8 | 12.9 | 0.00 | 0.00 | 0.00 | 51 | 1015.0 |
| 20260502185054 | 8 | 19 | 4.8 | 11.3 | 0.00 | 0.00 | 0.00 | 49 | 1015.0 |
| 20260502184601 | 8 | 306 | 3.2 | 11.3 | 0.00 | 0.00 | 0.00 | 51 | 1015.0 |
| 20260502184054 | 8 | 280 | 1.6 | 12.9 | 0.00 | 0.00 | 0.00 | 49 | 1015.1 |
| 20260502183555 | 7 | 196 | 1.6 | 17.7 | 0.00 | 0.00 | 0.00 | 49 | 1015.1 |
| 20260502183110 | 7 | 327 | 4.8 | 17.7 | 0.00 | 0.00 | 0.00 | 50 | 1015.2 |
| 20260502182555 | 8 | 352 | 4.8 | 16.1 | 0.00 | 0.00 | 0.00 | 50 | 1015.1 |
| 20260502182055 | 8 | 308 | 3.2 | 16.1 | 0.00 | 0.00 | 0.00 | 50 | 1015.1 |
| 20260502181555 | 8 | 360 | 4.8 | 14.5 | 0.00 | 0.00 | 0.00 | 47 | 1015.2 |
| 20260502181055 | 8 | 352 | 4.8 | 14.5 | 0.00 | 0.00 | 0.00 | 53 | 1015.2 |
| 20260502180559 | 7 | 322 | 4.8 | 12.9 | 0.00 | 0.00 | 0.00 | 49 | 1015.4 |
| 20260502164054 | 7 | 13 | 3.2 | 16.1 | 0.00 | 0.00 | 0.00 | 51 | 1015.8 |
| 20260502163554 | 8 | 30 | 1.6 | 16.1 | 0.00 | 0.00 | 0.00 | 54 | 1015.8 |
| 20260502163105 | 8 | 338 | 9.7 | 16.1 | 0.00 | 0.00 | 0.00 | 51 | 1016.0 |
| 20260502162555 | 7 | 325 | 8.0 | 16.1 | 0.00 | 0.00 | 0.00 | 54 | 1015.9 |
| 20260502162053 | 7 | 329 | 3.2 | 14.5 | 0.00 | 0.00 | 0.00 | 53 | 1015.9 |
| 20260502161620 | 6 | 267 | 4.8 | 17.7 | 0.00 | 0.00 | 0.00 | 54 | 1015.9 |
| 20260502161057 | 7 | 321 | 6.4 | 17.7 | 0.00 | 0.00 | 0.00 | 55 | 1016.0 |
| 20260502160554 | 7 | 259 | 3.2 | 12.9 | 0.00 | 0.00 | 0.00 | 52 | 1016.0 |
| 20260502152059 | 7 | 345 | 3.2 | 22.5 | 0.00 | 0.00 | 0.00 | 56 | 1015.7 |
| 20260502151605 | 7 | 331 | 6.4 | 22.5 | 0.00 | 0.00 | 0.00 | 56 | 1015.7 |
| 20260502151055 | 7 | 286 | 8.0 | 22.5 | 0.00 | 0.00 | 0.00 | 54 | 1015.9 |
| 20260502150554 | 7 | 323 | 6.4 | 16.1 | 0.00 | 0.00 | 0.00 | 56 | 1015.7 |
| 20260502130554 | 4 | 344 | 3.2 | 14.5 | 0.00 | 0.00 | 0.00 | 69 | 1015.9 |
| 20260502123554 | 3 | 5 | 3.2 | 16.1 | 0.00 | 0.00 | 0.00 | 71 | 1015.8 |
| 20260502123057 | 3 | 349 | 6.4 | 20.9 | 0.00 | 0.00 | 0.00 | 71 | 1015.7 |
| 20260502122554 | 3 | 338 | 6.4 | 20.9 | 0.00 | 0.00 | 0.00 | 71 | 1015.8 |
| 20260502122055 | 3 | 328 | 8.0 | 20.9 | 0.00 | 0.00 | 0.00 | 71 | 1015.9 |
| 20260502121559 | 3 | 347 | 6.4 | 20.9 | 0.00 | 0.00 | 0.00 | 73 | 1015.8 |
| 20260502121054 | 2 | 345 | 9.7 | 20.9 | 0.00 | 0.00 | 0.00 | 72 | 1015.7 |
| 20260502120556 | 2 | 322 | 4.8 | 14.5 | 0.00 | 0.00 | 0.00 | 73 | 1015.7 |
| 20260502115554 | 2 | 350 | 3.2 | 12.9 | 0.00 | 0.00 | 0.00 | 75 | 1015.7 |
| 20260502115057 | 2 | 338 | 3.2 | 12.9 | 0.00 | 0.00 | 0.00 | 76 | 1015.6 |
| 20260502114557 | 1 | 332 | 3.2 | 8.0 | 0.00 | 0.00 | 0.00 | 77 | 1015.6 |
| 20260502114057 | 1 | 321 | 1.6 | 8.0 | 0.00 | 0.00 | 0.00 | 77 | 1015.7 |
| 20260502113556 | 1 | 316 | 1.6 | 4.8 | 0.00 | 0.00 | 0.00 | 77 | 1015.7 |
| 20260502113057 | 1 | 316 | 0.0 | 6.4 | 0.00 | 0.00 | 0.00 | 77 | 1015.6 |
| 20260502112554 | 1 | 347 | 0.0 | 6.4 | 0.00 | 0.00 | 0.00 | 78 | 1015.6 |
| 20260502112054 | 1 | 347 | 0.0 | 4.8 | 0.00 | 0.00 | 0.00 | 78 | 1015.5 |
| 20260502111606 | 0 | 309 | 0.0 | 3.2 | 0.00 | 0.00 | 0.00 | 78 | 1015.5 |
| 20260502111055 | 0 | 0 | 0.0 | 3.2 | 0.00 | 0.00 | 0.00 | 79 | 1015.5 |
| 20260502110557 | 0 | 0 | 0.0 | 4.8 | 0.00 | 0.00 | 0.00 | 79 | 1015.4 |
| 20260502110058 | 0 | 335 | 0.0 | 4.8 | 0.00 | 0.00 | 0.00 | 79 | 1015.3 |
| 20260502105558 | 0 | 0 | 0.0 | 4.8 | 0.00 | 0.00 | 0.00 | 79 | 1015.1 |
| 20260502105055 | 0 | 335 | 0.0 | 3.2 | 0.00 | 0.00 | 0.00 | 79 | 1015.2 |
| 20260502104557 | 0 | 0 | 0.0 | 3.2 | 0.00 | 0.00 | 0.00 | 79 | 1015.1 |
| 20260502104054 | 0 | 0 | 0.0 | 3.2 | 0.00 | 0.00 | 0.00 | 79 | 1015.1 |
| 20260502103558 | 0 | 0 | 0.0 | 3.2 | 0.00 | 0.00 | 0.00 | 78 | 1015.1 |
| 20260502103057 | 0 | 335 | 0.0 | 3.2 | 0.00 | 0.00 | 0.00 | 78 | 1015.1 |
| 20260502102554 | 0 | 0 | 0.0 | 1.6 | 0.00 | 0.00 | 0.00 | 78 | 1015.1 |
| 20260502102056 | 0 | 0 | 0.0 | 1.6 | 0.00 | 0.00 | 0.00 | 78 | 1015.1 |
| 20260502101556 | 0 | 0 | 0.0 | 0.0 | 0.00 | 0.00 | 0.00 | 77 | 1015.1 |
| 20260502101054 | 0 | 0 | 0.0 | 1.6 | 0.00 | 0.00 | 0.00 | 77 | 1015.1 |
| 20260502100554 | 0 | 0 | 0.0 | 3.2 | 0.00 | 0.00 | 0.00 | 77 | 1015.1 |
| 20260502091053 | 1 | 0 | 0.0 | 0.0 | 0.00 | 0.00 | 0.00 | 74 | 1014.6 |
| 20260502090555 | 2 | 0 | 0.0 | 1.6 | 0.00 | 0.00 | 0.00 | 73 | 1014.7 |
| 20260502090114 | 1 | 0 | 0.0 | 3.2 | 0.00 | 0.00 | 0.00 | 73 | 1014.7 |
| 20260502071057 | 3 | 334 | 1.6 | 6.4 | 0.00 | 0.05 | 0.00 | 69 | 1014.3 |
| 20260502070554 | 3 | 329 | 1.6 | 6.4 | 0.00 | 0.05 | 0.00 | 69 | 1014.3 |
| 20260502070107 | 3 | 329 | 1.6 | 6.4 | 0.00 | 0.05 | 0.00 | 70 | 1014.2 |
| 20260502065556 | 3 | 335 | 1.6 | 6.4 | 0.00 | 0.05 | 0.00 | 69 | 1014.3 |
| 20260502065054 | 3 | 346 | 1.6 | 9.7 | 0.00 | 0.05 | 0.00 | 70 | 1014.3 |
| 20260502064558 | 3 | 329 | 3.2 | 12.9 | 0.00 | 0.05 | 0.00 | 71 | 1014.4 |
| 20260502064055 | 3 | 348 | 3.2 | 12.9 | 0.00 | 0.05 | 0.00 | 70 | 1014.3 |
| 20260502063557 | 3 | 360 | 3.2 | 12.9 | 0.00 | 0.05 | 0.00 | 70 | 1014.4 |
| 20260502063100 | 3 | 355 | 3.2 | 9.7 | 0.00 | 0.05 | 0.00 | 71 | 1014.4 |
| 20260502062554 | 3 | 5 | 4.8 | 9.7 | 0.00 | 0.05 | 0.00 | 73 | 1014.4 |
| 20260502062053 | 3 | 350 | 1.6 | 4.8 | 0.00 | 0.05 | 0.00 | 75 | 1014.5 |
| 20260502061555 | 3 | 0 | 0.0 | 4.8 | 0.00 | 0.05 | 0.00 | 76 | 1014.6 |
| 20260502061056 | 3 | 0 | 0.0 | 4.8 | 0.00 | 0.05 | 0.00 | 75 | 1014.6 |
| 20260502060559 | 3 | 0 | 1.6 | 4.8 | 0.00 | 0.05 | 0.00 | 75 | 1014.6 |
| 20260502060058 | 3 | 350 | 0.0 | 4.8 | 0.00 | 0.05 | 0.00 | 76 | 1014.6 |
| 20260502055557 | 3 | 350 | 0.0 | 4.8 | 0.00 | 0.08 | 0.00 | 76 | 1014.7 |
| 20260502055054 | 3 | 350 | 1.6 | 6.4 | 0.00 | 0.08 | 0.00 | 75 | 1014.7 |
| 20260502054556 | 3 | 0 | 1.6 | 6.4 | 0.00 | 0.08 | 0.00 | 76 | 1014.7 |
| 20260502054054 | 3 | 0 | 1.6 | 9.7 | 0.00 | 0.08 | 0.00 | 75 | 1014.7 |
| 20260502053554 | 3 | 350 | 1.6 | 11.3 | 0.00 | 0.08 | 0.00 | 76 | 1014.7 |
| 20260502053119 | 3 | 355 | 4.8 | 11.3 | 0.00 | 0.08 | 0.00 | 75 | 1014.6 |
| 20260502052556 | 3 | 328 | 1.6 | 6.4 | 0.00 | 0.08 | 0.00 | 77 | 1014.6 |
| 20260502052055 | 3 | 0 | 1.6 | 6.4 | 0.00 | 0.08 | 0.00 | 77 | 1014.6 |
| 20260502051607 | 3 | 0 | 1.6 | 6.4 | 0.00 | 0.08 | 0.00 | 77 | 1014.7 |
| 20260502051058 | 3 | 314 | 1.6 | 4.8 | 0.00 | 0.08 | 0.00 | 77 | 1014.6 |
| 20260502050556 | 3 | 0 | 0.0 | 3.2 | 0.00 | 0.08 | 0.00 | 77 | 1014.6 |
| 20260502050057 | 3 | 0 | 0.0 | 3.2 | 0.00 | 0.08 | 0.00 | 77 | 1014.6 |
| 20260502045555 | 3 | 0 | 0.0 | 3.2 | 0.00 | 0.18 | 0.00 | 77 | 1014.6 |
| 20260502045057 | 3 | 0 | 0.0 | 1.6 | 0.00 | 0.18 | 0.00 | 77 | 1014.5 |
| 20260502044557 | 3 | 0 | 0.0 | 4.8 | 0.00 | 0.18 | 0.00 | 78 | 1014.4 |
| 20260502044058 | 3 | 0 | 0.0 | 4.8 | 0.00 | 0.18 | 0.00 | 77 | 1014.4 |
| 20260502043556 | 3 | 0 | 0.0 | 4.8 | 0.00 | 0.18 | 0.00 | 77 | 1014.4 |
| 20260502043112 | 3 | 314 | 0.0 | 8.0 | 0.00 | 0.18 | 0.00 | 77 | 1014.4 |
| 20260502042555 | 3 | 314 | 0.0 | 8.0 | 0.00 | 0.18 | 0.00 | 78 | 1014.4 |
| 20260502042055 | 3 | 342 | 0.0 | 4.8 | 0.00 | 0.18 | 0.00 | 79 | 1014.4 |
| 20260502041631 | 3 | 317 | 0.0 | 3.2 | 0.00 | 0.18 | 0.00 | 79 | 1014.3 |
| 20260502041054 | 3 | 0 | 0.0 | 0.0 | 0.00 | 0.18 | 0.00 | 80 | 1014.1 |
| 20260502040554 | 3 | 0 | 0.0 | 0.0 | 0.00 | 0.18 | 0.00 | 80 | 1014.2 |
| 20260502040059 | 3 | 0 | 0.0 | 0.0 | 0.00 | 0.18 | 0.00 | 80 | 1014.1 |
| 20260502035554 | 3 | 0 | 0.0 | 0.0 | 0.00 | 0.25 | 0.18 | 79 | 1014.1 |
| 20260502035056 | 3 | 0 | 0.0 | 0.0 | 0.00 | 0.25 | 0.18 | 78 | 1014.2 |
| 20260502034556 | 3 | 0 | 0.0 | 0.0 | 0.00 | 0.25 | 0.18 | 79 | 1014.1 |
| 20260502034055 | 3 | 0 | 0.0 | 0.0 | 0.00 | 0.25 | 0.18 | 79 | 1014.1 |
| 20260502033557 | 3 | 0 | 0.0 | 0.0 | 0.00 | 0.25 | 0.18 | 79 | 1014.1 |
| 20260502033106 | 3 | 0 | 0.0 | 0.0 | 0.00 | 0.25 | 0.18 | 78 | 1014.2 |
| 20260502032555 | 3 | 0 | 0.0 | 0.0 | 0.00 | 0.25 | 0.18 | 77 | 1014.3 |
| 20260502032055 | 3 | 0 | 0.0 | 0.0 | 0.00 | 0.25 | 0.18 | 77 | 1014.2 |
| 20260502031601 | 3 | 0 | 0.0 | 1.6 | 0.00 | 0.25 | 0.18 | 77 | 1014.2 |
| 20260502031058 | 3 | 0 | 0.0 | 1.6 | 0.00 | 0.25 | 0.18 | 77 | 1014.2 |
| 20260502030554 | 3 | 0 | 0.0 | 3.2 | 0.00 | 0.25 | 0.18 | 77 | 1014.2 |
| 20260502030100 | 3 | 317 | 0.0 | 3.2 | 0.00 | 0.25 | 0.18 | 77 | 1014.2 |
| 20260502025555 | 3 | 317 | 0.0 | 3.2 | 0.00 | 0.25 | 0.18 | 76 | 1014.2 |
| 20260502025054 | 3 | 317 | 0.0 | 3.2 | 0.00 | 0.25 | 0.18 | 76 | 1014.2 |
| 20260502024600 | 3 | 0 | 0.0 | 3.2 | 0.00 | 0.25 | 0.18 | 76 | 1014.2 |
| 20260502024056 | 3 | 317 | 0.0 | 1.6 | 0.00 | 0.25 | 0.18 | 76 | 1014.2 |
| 20260502023559 | 3 | 0 | 0.0 | 0.0 | 0.00 | 0.25 | 0.18 | 76 | 1014.1 |
| 20260502023100 | 3 | 0 | 0.0 | 0.0 | 0.00 | 0.25 | 0.18 | 76 | 1014.2 |
| 20260502022554 | 3 | 0 | 0.0 | 0.0 | 0.00 | 0.25 | 0.18 | 77 | 1014.1 |
| 20260502022054 | 4 | 0 | 0.0 | 0.0 | 0.00 | 0.25 | 0.18 | 76 | 1014.2 |
| 20260502021600 | 4 | 0 | 0.0 | 0.0 | 0.00 | 0.25 | 0.18 | 74 | 1014.1 |
| 20260502021055 | 4 | 0 | 0.0 | 0.0 | 0.00 | 0.25 | 0.18 | 74 | 1013.9 |
| 20260502020555 | 4 | 0 | 0.0 | 0.0 | 0.00 | 0.25 | 0.18 | 74 | 1013.9 |
| 20260502020106 | 4 | 0 | 0.0 | 0.0 | 0.00 | 0.25 | 0.18 | 74 | 1013.8 |
| 20260502015555 | 5 | 0 | 0.0 | 0.0 | 0.00 | 0.25 | 0.18 | 73 | 1013.7 |
| 20260502015055 | 5 | 0 | 0.0 | 4.8 | 0.00 | 0.25 | 0.18 | 73 | 1013.8 |
| 20260502014557 | 5 | 0 | 0.0 | 4.8 | 0.00 | 0.25 | 0.18 | 72 | 1013.6 |
| 20260502014054 | 5 | 355 | 1.6 | 6.4 | 0.00 | 0.25 | 0.18 | 72 | 1013.5 |
| 20260502013557 | 5 | 352 | 0.0 | 8.0 | 0.00 | 0.25 | 0.18 | 71 | 1013.6 |
| 20260502013101 | 5 | 302 | 1.6 | 8.0 | 0.00 | 0.25 | 0.18 | 70 | 1013.5 |
| 20260502012556 | 5 | 332 | 1.6 | 6.4 | 0.00 | 0.25 | 0.18 | 71 | 1013.5 |
| 20260502012054 | 5 | 0 | 0.0 | 8.0 | 0.00 | 0.25 | 0.18 | 72 | 1013.5 |
| 20260502011600 | 5 | 338 | 1.6 | 8.0 | 0.00 | 0.25 | 0.18 | 72 | 1013.4 |
| 20260502011054 | 5 | 360 | 0.0 | 4.8 | 0.00 | 0.25 | 0.18 | 72 | 1013.4 |
| 20260502010556 | 5 | 0 | 1.6 | 9.7 | 0.00 | 0.25 | 0.18 | 72 | 1013.3 |
| 20260502010104 | 5 | 0 | 0.0 | 9.7 | 0.00 | 0.25 | 0.18 | 71 | 1013.3 |
| 20260502005555 | 5 | 314 | 1.6 | 9.7 | 0.00 | 0.25 | 0.18 | 70 | 1013.3 |
| 20260502005054 | 5 | 331 | 1.6 | 6.4 | 0.00 | 0.25 | 0.18 | 72 | 1013.3 |
| 20260502004600 | 5 | 330 | 0.0 | 8.0 | 0.00 | 0.25 | 0.18 | 71 | 1013.2 |
| 20260502004054 | 5 | 309 | 0.0 | 8.0 | 0.00 | 0.25 | 0.18 | 72 | 1013.4 |
| 20260502003556 | 6 | 0 | 3.2 | 9.7 | 0.00 | 0.25 | 0.18 | 70 | 1013.3 |
| 20260502003056 | 6 | 339 | 3.2 | 9.7 | 0.00 | 0.25 | 0.18 | 70 | 1013.3 |
| 20260502002554 | 6 | 340 | 3.2 | 8.0 | 0.00 | 0.25 | 0.18 | 70 | 1013.2 |
| 20260502002055 | 6 | 344 | 3.2 | 6.4 | 0.00 | 0.25 | 0.18 | 70 | 1013.2 |
| 20260502001602 | 6 | 317 | 3.2 | 6.4 | 0.00 | 0.25 | 0.18 | 70 | 1013.1 |
| 20260502001057 | 6 | 314 | 1.6 | 6.4 | 0.00 | 0.25 | 0.18 | 70 | 1013.1 |
| 20260502000555 | 6 | 336 | 1.6 | 8.0 | 0.00 | 0.25 | 0.18 | 71 | 1013.1 |
| 20260502000056 | 6 | 352 | 1.6 | 8.0 | 0.00 | 0.25 | 0.18 | 70 | 1013.0 |
| 20260501235559 | 6 | 335 | 3.2 | 8.0 | 0.00 | 0.25 | 0.18 | 70 | 1012.8 |
| 20260501235055 | 6 | 321 | 3.2 | 8.0 | 0.00 | 0.25 | 0.18 | 70 | 1012.8 |
| 20260501234600 | 6 | 360 | 1.6 | 9.7 | 0.00 | 0.25 | 0.18 | 69 | 1012.8 |
| 20260501234054 | 6 | 338 | 1.6 | 9.7 | 0.00 | 0.25 | 0.18 | 70 | 1012.8 |